User: anonymous   Login
Location: Brainerd
(46.3580°N, 94.2010°W)
Time: 05:24:53
(UTC-05:00)
Language:

CZ-4C R/B - Orbit

View from above orbital plane
View from above orbital plane
View from above satellite
View from above satellite

Ground track
Ground track

The orbit data is extracted from the following two-line orbital elements,

1 32290U 07055B   17147.86399967 +.00002184 +00000-0 +63244-4 0  9998
2 32290 097.5290 253.8856 0066624 203.3474 156.4740 15.34585524528626
Epoch (UTC): 27 May 2017 20:44:09
Eccentricity: 0.0066624
inclination: 97.5290°
perigee height: 416 km
apogee height: 508 km
right ascension of ascending node: 253.8856°
argument of perigee: 203.3474°
revolutions per day: 15.34585524
mean anomaly at epoch: 156.4740°
orbit number at epoch: 52862

The dashed part of the orbit path shows where the satellite is in the earth's shadow,  

DLR